Погода в Алтайском

Россия / Алтайский край     51°57′08″N   85°20′17″E
темп.,
°C
ветер,
м/с
пор.,
м/с
влажн.,
%
обл.,
%
осадки,
мм/ч
давл.,
гПа
погр.,
м
23 апреля, пт
пт2301:00−3з2294100 0.3 1038138
04:00−3зсз239799 0.2 103885
07:00−3зсз2390100 0.2 1039225
10:00−1сз3366100 0.0 1039576
13:00+1ссз4560100 0.0 10381057
16:000ссв3579100 0.4 1038810
19:00+1с2475100 0.9 1038716
22:00−1юз2292100 0.5 1038103
24 апреля, сб
сб2401:00−2зюз239054 0.6 103660
04:00−3зюз239034 0.0 103544
07:00−2зюз248598 0.0 1035199
10:00+2з347387 0.1 1034839
13:00+4зсз665695 0.3 10331643
16:00+4зсз565799 0.3 10321464
19:00+3сз3570100 1.1 1033864
22:00+1з2397100 1.0 1035161
25 апреля, вс
вс2501:000з2392100 1.3 1034108
04:00−1ююз229282 0.1 103427
07:00−1ююз228649 0.1 103544
10:00+4ю11619 0.1 1034961
13:00+6ссв114997 0.3 10331558
16:00+7ссв224697 0.2 10321620
19:00+6всв335823 0.3 1032791
22:00+2ююв22754 0.0 103321
26 апреля, пн
пн2601:00+1ю22768 0.0 103222
04:000ююв227798 0.0 103126
07:00+1ююв2375100 0.0 103165
10:00+6юв2257100 0.0 1029431
13:00+10ююз024398 0.0 10281166
16:00+12з12375 0.0 10271652
19:00+11ююз234666 0.0 1027436
22:00+6ю346229 0.0 102750
27 апреля, вт
вт2701:00+5ю446380 0.0 102649
04:00+5ю4566100 0.0 102576
07:00+6ююз3465100 0.0 102678
10:00+8ю3968100 0.4 1025298
13:00+12зюз51156100 0.8 10251053
16:00+15зсз71149100 0.1 10242160
19:00+12зюз4961100 0.1 1025354
22:00+9ююз2275100 0.0 102529